Stündliche Wetter Bolshie Gorki

Heute, 21 April, Mittwoch

Zeit Temperatur Niederschläge Wind Luftdruck Luftfeuchtigkeit
00:00 +2°C° 0.1 mm 3 m/S 746 mmHg 96%
01:00 +2°C° 0.1 mm 3 m/S 745 mmHg 96%
02:00 +3°C° 0.1 mm 2 m/S 744 mmHg 97%
03:00 +3°C° 0.6 mm 2 m/S 744 mmHg 97%
04:00 +3°C° 0.6 mm 2 m/S 743 mmHg 97%
05:00 +2°C° 0.6 mm 2 m/S 742 mmHg 98%
06:00 +2°C° 0.8 mm 2 m/S 741 mmHg 98%
07:00 +2°C° 0.8 mm 2 m/S 741 mmHg 98%
08:00 +2°C° 0.8 mm 2 m/S 740 mmHg 99%
09:00 +2°C° 0.5 mm 2 m/S 740 mmHg 99%
10:00 +2°C° 0.5 mm 2 m/S 740 mmHg 98%
11:00 +2°C° 0.5 mm 2 m/S 740 mmHg 98%
12:00 +3°C° 0 mm 2 m/S 741 mmHg 96%
13:00 +2°C° 0 mm 3 m/S 741 mmHg 94%
14:00 +2°C° 0 mm 3 m/S 741 mmHg 92%
15:00 +3°C° 0 mm 3 m/S 742 mmHg 91%
16:00 +3°C° 0 mm 3 m/S 742 mmHg 90%
17:00 +3°C° 0 mm 3 m/S 742 mmHg 88%
18:00 +4°C° 0 mm 2 m/S 743 mmHg 90%
19:00 +4°C° 0 mm 2 m/S 743 mmHg 91%
20:00 +4°C° 0 mm 2 m/S 744 mmHg 92%
21:00 +4°C° 0 mm 2 m/S 744 mmHg 92%
22:00 +3°C° 0 mm 2 m/S 744 mmHg 93%
23:00 +3°C° 0 mm 2 m/S 745 mmHg 93%

Morgen, 22 April, Donnerstag

Zeit Temperatur Niederschläge Wind Luftdruck Luftfeuchtigkeit
00:00 +2°C° 0 mm 2 m/S 745 mmHg 93%
01:00 +2°C° 0 mm 2 m/S 745 mmHg 94%
02:00 +2°C° 0 mm 2 m/S 745 mmHg 94%
03:00 +2°C° 0 mm 2 m/S 745 mmHg 94%
04:00 +2°C° 0 mm 2 m/S 746 mmHg 94%
05:00 +2°C° 0 mm 2 m/S 746 mmHg 94%
06:00 +3°C° 0 mm 3 m/S 746 mmHg 88%
07:00 +5°C° 0 mm 4 m/S 746 mmHg 81%
08:00 +7°C° 0 mm 4 m/S 747 mmHg 75%
09:00 +8°C° 0 mm 4 m/S 747 mmHg 69%
10:00 +10°C° 0 mm 4 m/S 747 mmHg 63%
11:00 +12°C° 0 mm 5 m/S 747 mmHg 57%
12:00 +12°C° 0.1 mm 5 m/S 747 mmHg 55%
13:00 +13°C° 0.1 mm 5 m/S 747 mmHg 54%
14:00 +13°C° 0.1 mm 5 m/S 747 mmHg 52%
15:00 +13°C° 0.1 mm 5 m/S 747 mmHg 55%
16:00 +13°C° 0.1 mm 5 m/S 747 mmHg 58%
17:00 +12°C° 0.1 mm 5 m/S 747 mmHg 60%
18:00 +10°C° 0 mm 5 m/S 747 mmHg 66%
19:00 +9°C° 0 mm 5 m/S 747 mmHg 71%
20:00 +8°C° 0 mm 4 m/S 747 mmHg 76%
21:00 +7°C° 0 mm 4 m/S 747 mmHg 80%
22:00 +7°C° 0 mm 4 m/S 747 mmHg 83%
23:00 +7°C° 0 mm 4 m/S 746 mmHg 86%

übermorgen, 23 April, Freitag

Zeit Temperatur Niederschläge Wind Luftdruck Luftfeuchtigkeit
00:00 +6°C° 0 mm 4 m/S 746 mmHg 89%
01:00 +7°C° 0 mm 3 m/S 746 mmHg 92%
02:00 +5°C° 0 mm 3 m/S 746 mmHg 95%
03:00 +5°C° 0 mm 3 m/S 746 mmHg 93%
04:00 +6°C° 0 mm 4 m/S 746 mmHg 91%
05:00 +6°C° 0 mm 4 m/S 746 mmHg 89%
06:00 +7°C° 0 mm 5 m/S 746 mmHg 84%
07:00 +9°C° 0 mm 5 m/S 746 mmHg 79%
08:00 +10°C° 0 mm 5 m/S 746 mmHg 74%
09:00 +10°C° 0.1 mm 5 m/S 747 mmHg 75%
10:00 +11°C° 0.1 mm 4 m/S 747 mmHg 76%
11:00 +10°C° 0.1 mm 4 m/S 747 mmHg 78%
12:00 +10°C° 0.1 mm 3 m/S 747 mmHg 78%
13:00 +10°C° 0.1 mm 2 m/S 747 mmHg 78%
14:00 +10°C° 0.1 mm 2 m/S 747 mmHg 78%
15:00 +8°C° 1 mm 2 m/S 747 mmHg 82%
16:00 +7°C° 1 mm 2 m/S 747 mmHg 86%
17:00 +6°C° 1 mm 2 m/S 747 mmHg 89%
18:00 +7°C° 0.3 mm 1 m/S 747 mmHg 91%
19:00 +7°C° 0.3 mm 1 m/S 747 mmHg 92%
20:00 +6°C° 0.3 mm 0 m/S 746 mmHg 93%
21:00 +7°C° 1.1 mm 1 m/S 746 mmHg 94%
22:00 +7°C° 1.1 mm 1 m/S 745 mmHg 95%
23:00 +5°C° 1.1 mm 2 m/S 745 mmHg 96%

24 April, Samstag

Zeit Temperatur Niederschläge Wind Luftdruck Luftfeuchtigkeit
00:00 +5°C° 1.7 mm 2 m/S 744 mmHg 96%
01:00 +5°C° 1.7 mm 2 m/S 744 mmHg 95%
02:00 +3°C° 1.7 mm 3 m/S 743 mmHg 95%
03:00 +3°C° 1 mm 3 m/S 743 mmHg 96%
04:00 +2°C° 1 mm 3 m/S 743 mmHg 97%
05:00 +1°C° 1 mm 3 m/S 743 mmHg 98%
06:00 +1°C° 0.8 mm 3 m/S 743 mmHg 98%
07:00 +2°C° 0.8 mm 3 m/S 743 mmHg 98%
08:00 +2°C° 0.8 mm 3 m/S 743 mmHg 98%
09:00 +2°C° 0.4 mm 3 m/S 743 mmHg 97%
10:00 +2°C° 0.4 mm 3 m/S 743 mmHg 96%
11:00 +3°C° 0.4 mm 3 m/S 744 mmHg 95%
12:00 +3°C° 0.1 mm 3 m/S 744 mmHg 90%
13:00 +4°C° 0.1 mm 3 m/S 744 mmHg 84%
14:00 +6°C° 0.1 mm 2 m/S 744 mmHg 78%
15:00 +6°C° 0.1 mm 2 m/S 743 mmHg 76%
16:00 +6°C° 0.1 mm 2 m/S 743 mmHg 74%
17:00 +8°C° 0.1 mm 1 m/S 743 mmHg 72%
18:00 +7°C° 0.1 mm 1 m/S 743 mmHg 76%
19:00 +4°C° 0.1 mm 2 m/S 743 mmHg 79%
20:00 +3°C° 0.1 mm 2 m/S 743 mmHg 83%
21:00 +2°C° 0 mm 2 m/S 743 mmHg 85%
22:00 +2°C° 0 mm 2 m/S 743 mmHg 87%
23:00 +1°C° 0 mm 2 m/S 743 mmHg 89%

25 April, Sonntag

Zeit Temperatur Niederschläge Wind Luftdruck Luftfeuchtigkeit
00:00 +1°C° 0 mm 2 m/S 744 mmHg 90%
01:00 -1°C° 0 mm 2 m/S 744 mmHg 92%
02:00 -1°C° 0 mm 2 m/S 744 mmHg 93%
03:00 -1°C° 0 mm 2 m/S 744 mmHg 94%
04:00 -1°C° 0 mm 3 m/S 744 mmHg 95%
05:00 -1°C° 0 mm 3 m/S 744 mmHg 95%
06:00 0°C° 0 mm 3 m/S 744 mmHg 90%
07:00 0°C° 0 mm 3 m/S 745 mmHg 85%
08:00 0°C° 0 mm 4 m/S 745 mmHg 81%
09:00 +1°C° 0 mm 4 m/S 745 mmHg 76%
10:00 +3°C° 0 mm 4 m/S 746 mmHg 72%
11:00 +3°C° 0 mm 3 m/S 746 mmHg 67%
12:00 +4°C° 0.1 mm 3 m/S 746 mmHg 62%
13:00 +5°C° 0.1 mm 3 m/S 746 mmHg 56%
14:00 +8°C° 0.1 mm 3 m/S 746 mmHg 50%
15:00 +7°C° 0.2 mm 3 m/S 746 mmHg 54%
16:00 +7°C° 0.2 mm 3 m/S 746 mmHg 58%
17:00 +7°C° 0.2 mm 2 m/S 746 mmHg 62%
18:00 +5°C° 0.1 mm 2 m/S 746 mmHg 68%
19:00 +4°C° 0.1 mm 2 m/S 746 mmHg 75%
20:00 +3°C° 0.1 mm 2 m/S 746 mmHg 82%
21:00 +2°C° 0 mm 2 m/S 747 mmHg 84%
22:00 +1°C° 0 mm 2 m/S 747 mmHg 86%
23:00 +1°C° 0 mm 2 m/S 747 mmHg 88%

26 April, Montag

Zeit Temperatur Niederschläge Wind Luftdruck Luftfeuchtigkeit
00:00 -1°C° 0 mm 2 m/S 747 mmHg 87%
01:00 -1°C° 0 mm 2 m/S 747 mmHg 87%
02:00 +1°C° 0 mm 1 m/S 747 mmHg 86%
03:00 +1°C° 0 mm 1 m/S 747 mmHg 85%
04:00 +1°C° 0 mm 1 m/S 747 mmHg 84%
05:00 +1°C° 0 mm 1 m/S 747 mmHg 83%
06:00 +3°C° 0 mm 1 m/S 747 mmHg 76%
07:00 +5°C° 0 mm 1 m/S 747 mmHg 69%
08:00 +6°C° 0 mm 1 m/S 747 mmHg 61%
09:00 +6°C° 0.1 mm 2 m/S 747 mmHg 55%
10:00 +7°C° 0.1 mm 2 m/S 747 mmHg 49%
11:00 +8°C° 0.1 mm 2 m/S 747 mmHg 43%
12:00 +9°C° 0 mm 2 m/S 747 mmHg 41%
13:00 +9°C° 0 mm 2 m/S 747 mmHg 40%
14:00 +9°C° 0 mm 2 m/S 747 mmHg 38%
15:00 +9°C° 0 mm 2 m/S 747 mmHg 40%
16:00 +9°C° 0 mm 2 m/S 746 mmHg 42%
17:00 +10°C° 0 mm 1 m/S 746 mmHg 43%
18:00 +8°C° 0 mm 1 m/S 746 mmHg 50%
19:00 +7°C° 0 mm 1 m/S 747 mmHg 57%
20:00 +5°C° 0 mm 1 m/S 747 mmHg 64%
21:00 +3°C° 0 mm 0 m/S 747 mmHg 66%
22:00 +3°C° 0 mm 0 m/S 747 mmHg 68%
23:00 +2°C° 0 mm 0 m/S 747 mmHg 71%
Mehr zeigen

Wir brauchen deine Erlaubnis

Meteoprog und unser Service Anbieter werden persönliche Daten aufbewahren, so wie Cookies, Geräte Bezeichnung oder ähnliche Technologien von deinem Gerät und Prozess, so wie Persönliche Daten Inhalte und Werbungen, genauso wie social Media und den Verkehr zu analysieren.

  • Aufbewahrung und/oder Zugang zu deiner Geräte Informationen.

    Cookies, Geräte Bezeichnung oder andere Informationen, können aufbewahrt oder Zugang zu deinem Gerät erhalten, für den Grund, der oben angegeben wird.

  • Personalisierte Werbung und Inhalte, Messungen, Einblick in das Publikum und Produkt Entwicklung.

    Werbungen und Inhalte können personalisiert werden, basierend auf ein Profil. Mehr Daten können besser personalisierte Werbungen und Inhalte hinzufügen. Werbung und Inhalte können gezeigt und gemessen werden. Einblicke über das Publikum, welche die Werbung gesehen haben und den Inhalt, können abgeleitet werden. So wie Daten können genutzt werden, um es zu verbessern oder die Benutzer Erfahrung zu verbessern das System und die Software.

Wenn du “Ich stimme zu” klickst, erlaubst du uns, die Cookies zu benutzen die Geräte Bezeichnung, den Web oder ähnliche Technologien zu benutzen. Deine Settings, können in deinem Gerät bei deinem Browser geändert werden.

Für den bestimmten Zweck, berechtigten Interessen beruhen darauf, mehr als auf den Inhalt. Du kannst mehr darüber in unseren Privaten und Cookie Politik lesen.